Probability
0 0 0 0 0 0 0 0 0 0 0 0 0 0 0 0 0 0 0 0 3 0 0 0 3 3 6 3 3 3 6 10 3 3 3 0 0 0 0 0 0 0 0 0
0 0 0 0 0 0 0 0 0 0 0 0 0 0 0 0 0 0 0 0 0 0 0 0 3 3 3 6 3 3 6 6 3 3 0 0 0 0 0 0 0 0 0 0
0 0 0 0 0 0 0 0 0 0 0 0 0 0 0 0 3 0 0 0 0 0 0 0 3 3 3 3 3 3 3 3 0 0 0 0 0 0 0 0 0 0 0 0
0 0 0 0 0 0 0 0 0 0 0 0 0 0 0 0 3 3 3 3 3 3 3 3 3 3 3 3 3 3 3 0 0 0 0 0 0 0 0 0 0 0 0 0
0 0 0 0 0 0 0 0 0 0 0 0 0 0 0 0 0 3 3 3 3 3 3 3 3 3 0 0 0 0 0 0 0 0 0 0 0 0 0 0 0 0 0 0
0 0 0 0 0 0 0 0 0 0 0 0 0 0 0 0 0 0 0 3 3 3 3 3 0 0 0 0 0 0 0 0 0 0 0 0 0 0 0 0 0 0 0 0
0 0 0 0 0 0 0 0 0 0 0 0 0 0 0 0 0 0 0 0 3 3 3 0 0 0 0 0 0 0 0 0 0 0 0 0 0 0 0 0 0 0 0 0
0 0 0 0 0 0 0 0 0 0 0 0 0 0 0 0 0 0 0 3 3 3 3 0 0 0 0 0 0 0 0 0 0 0 0 0 0 0 0 0 0 0 0 0
0 0 0 0 0 0 0 0 0 0 0 0 0 0 0 0 0 0 3 3 3 3 0 0 0 0 0 0 0 0 0 0 0 0 0 0 0 0 0 0 0 0 0 0
0 0 0 0 0 0 0 0 0 0 0 0 0 0 0 0 0 0 3 3 3 0 0 0 0 0 0 0 0 0 0 0 0 0 0 0 0 0 0 0 0 0 0 0
0 0 0 0 0 0 0 0 0 0 0 0 0 0 0 0 0 0 0 0 0 0 0 0 0 0 0 0 0 0 0 0 0 0 0 0 0 0 0 0 0 0 0 0
0 0 0 0 0 0 0 0 0 0 0 0 0 0 0 0 0 0 0 0 0 0 0 0 0 0 0 0 0 0 0 0 0 0 0 0 0 0 0 0 0 0 0 0
0 0 0 0 0 0 0 0 0 0 0 0 0 0 0 0 0 0 0 0 0 0 0 0 0 0 0 0 0 0 0 0 0 0 0 0 0 0 0 0 0 0 0 0
0 0 0 0 0 0 0 0 0 0 0 0 0 0 0 0 0 0 0 0 0 0 0 0 0 0 0 0 0 0 0 0 0 0 0 0 0 0 0 0 0 0 0 0
0 0 0 0 0 0 0 0 0 0 0 0 0 0 0 0 0 0 0 0 0 0 0 0 0 0 0 0 0 0 0 0 0 0 0 0 0 0 0 0 0 0 0 0
0 0 0 0 0 0 0 0 0 0 0 0 0 0 0 0 0 0 0 0 0 0 0 0 0 0 0 0 0 0 0 0 0 0 0 0 0 0 0 0 0 0 0 0
0 0 0 0 0 0 0 0 0 0 0 0 0 0 0 0 0 0 0 0 0 0 0 0 0 0 0 0 0 0 0 0 0 0 0 0 0 0 0 0 0 0 0 0
0 0 0 0 0 0 0 0 0 0 0 0 0 0 0 0 0 0 0 0 0 0 0 0 0 0 0 0 0 0 0 0 0 0 0 0 0 0 0 0 0 0 0 0
0 0 0 0 0 0 0 0 0 0 0 0 0 0 0 0 0 0 0 0 0 0 0 0 0 0 0 0 0 0 0 0 0 0 0 0 0 0 0 0 0 0 0 0
0 0 0 0 0 0 0 0 0 0 0 0 0 0 0 0 0 0 0 0 0 0 0 0 0 0 0 0 0 0 0 0 0 0 0 0 0 0 0 0 0 0 0 0
0 0 0 0 0 0 0 0 0 0 0 0 0 0 0 0 0 0 0 0 0 0 0 0 0 0 0 0 0 0 0 0 0 0 0 0 0 0 0 0 0 0 0 0
0 0 0 0 0 0 0 0 0 0 0 0 0 0 0 0 0 0 0 0 0 0 0 0 0 0 0 0 0 0 0 0 0 0 0 0 0 0 0 0 0 0 0 0
0 0 0 0 0 0 0 0 0 0 0 0 0 0 0 0 0 0 0 0 0 0 0 0 0 0 0 0 0 0 0 0 0 0 0 0 0 0 0 0 0 0 0 0
0 0 0 0 0 0 0 0 0 0 0 0 0 0 0 0 0 0 0 0 0 0 0 0 0 0 0 0 0 0 0 0 0 0 0 0 0 0 0 0 0 0 0 0
0 0 0 0 0 0 0 0 0 0 0 0 0 0 0 0 0 0 0 0 0 0 0 0 0 0 0 0 0 0 0 0 0 0 0 0 0 0 0 0 0 0 0 0
0 0 0 0 0 0 0 0 0 0 0 0 0 0 0 0 0 0 0 0 0 0 0 0 0 0 0 0 0 0 0 0 0 0 0 0 0 0 0 0 0 0 0 0
0 0 0 0 0 0 0 0 0 0 0 0 0 0 0 0 0 0 0 0 0 0 0 0 0 0 0 0 0 0 0 0 0 0 0 0 0 0 0 0 0 0 0 0
Height
5773 5774 5774 5775 5776 5777 5778 5779 5780 5781 5781 5782 5781 5781 5781 5781 5781 5781 5781 5782 5782 5782 5783 5783 5784 5785 5785 5786 5787 5787 5788 5787 5787 5787 5787 5786 5786 5786 5785 5784 5784 5783 5782 5781
5767 5768 5768 5768 5770 5770 5772 5773 5774 5775 5775 5776 5775 5775 5775 5775 5775 5776 5776 5776 5776 5776 5777 5778 5778 5779 5780 5780 5781 5781 5782 5782 5781 5781 5781 5780 5780 5780 5779 5779 5778 5777 5776 5775
5761 5761 5761 5762 5765 5765 5766 5767 5768 5768 5770 5769 5768 5768 5769 5769 5769 5770 5770 5770 5770 5770 5770 5771 5772 5773 5773 5774 5774 5774 5775 5775 5775 5775 5774 5774 5774 5773 5773 5772 5772 5771 5770 5769
5753 5755 5754 5759 5758 5758 5759 5760 5761 5761 5762 5762 5762 5761 5762 5762 5762 5763 5763 5764 5764 5764 5764 5765 5765 5766 5766 5767 5767 5768 5768 5768 5768 5768 5767 5767 5767 5766 5766 5766 5765 5764 5763 5763
5747 5747 5748 5751 5751 5752 5752 5753 5754 5754 5755 5755 5754 5754 5754 5755 5755 5756 5756 5757 5757 5758 5758 5758 5759 5759 5759 5760 5760 5760 5760 5760 5760 5761 5760 5760 5760 5759 5759 5758 5758 5757 5756 5755
5739 5740 5741 5744 5744 5744 5746 5746 5747 5747 5747 5747 5747 5748 5748 5748 5748 5748 5749 5749 5750 5750 5751 5751 5751 5751 5752 5752 5752 5752 5752 5752 5752 5752 5752 5752 5752 5752 5751 5751 5751 5750 5749 5748
5732 5732 5733 5736 5737 5737 5739 5739 5739 5739 5739 5740 5740 5740 5740 5740 5741 5741 5741 5741 5742 5743 5743 5743 5743 5743 5743 5743 5744 5744 5743 5743 5743 5743 5743 5743 5743 5743 5743 5743 5743 5742 5742 5741
5725 5725 5728 5728 5728 5729 5729 5729 5730 5731 5731 5732 5732 5732 5732 5732 5733 5733 5733 5733 5734 5734 5735 5735 5735 5735 5735 5735 5735 5735 5735 5734 5734 5734 5734 5734 5734 5734 5734 5734 5734 5734 5734 5733
5717 5719 5719 5719 5719 5719 5720 5721 5721 5722 5723 5723 5723 5723 5723 5724 5724 5724 5725 5725 5725 5726 5726 5726 5726 5726 5726 5727 5726 5726 5726 5725 5725 5725 5725 5724 5724 5725 5725 5725 5725 5725 5725 5725
5707 5708 5709 5710 5710 5711 5711 5711 5712 5713 5713 5714 5714 5714 5714 5714 5715 5716 5716 5717 5717 5717 5717 5717 5717 5717 5718 5717 5717 5717 5717 5717 5716 5716 5716 5715 5715 5715 5715 5716 5716 5717 5716 5716
5697 5699 5699 5700 5701 5701 5701 5702 5703 5703 5704 5704 5704 5704 5705 5705 5706 5706 5707 5707 5707 5707 5707 5707 5707 5707 5708 5708 5707 5707 5708 5707 5707 5707 5706 5706 5706 5706 5706 5707 5707 5707 5707 5706
5687 5689 5688 5690 5690 5690 5691 5692 5692 5693 5694 5694 5694 5694 5695 5695 5696 5696 5697 5697 5697 5697 5697 5697 5697 5697 5698 5698 5697 5698 5698 5698 5698 5698 5697 5697 5697 5697 5697 5698 5698 5697 5697 5696
5677 5678 5678 5678 5679 5680 5680 5681 5682 5682 5683 5683 5684 5684 5684 5685 5686 5686 5686 5686 5686 5686 5686 5686 5687 5687 5687 5687 5687 5687 5687 5688 5688 5688 5688 5688 5688 5688 5688 5688 5687 5687 5687 5686
5667 5667 5667 5668 5668 5669 5669 5670 5670 5671 5672 5673 5673 5673 5674 5674 5675 5675 5676 5676 5676 5676 5676 5676 5676 5676 5676 5677 5677 5677 5677 5678 5678 5678 5678 5679 5679 5679 5679 5678 5678 5678 5677 5677
5656 5656 5657 5657 5658 5658 5659 5659 5660 5661 5662 5662 5663 5663 5664 5664 5665 5665 5665 5665 5665 5665 5665 5665 5665 5666 5665 5666 5666 5667 5667 5668 5668 5668 5669 5669 5669 5669 5669 5669 5669 5669 5668 5668
5645 5646 5646 5646 5647 5648 5648 5649 5650 5651 5651 5652 5653 5653 5654 5654 5654 5654 5654 5654 5654 5655 5655 5655 5655 5655 5655 5655 5656 5656 5657 5658 5658 5658 5658 5658 5659 5659 5659 5659 5659 5659 5659 5658
5635 5636 5636 5636 5637 5638 5638 5639 5640 5641 5642 5643 5643 5643 5644 5644 5644 5644 5644 5644 5644 5644 5644 5644 5644 5644 5645 5645 5645 5646 5647 5647 5648 5647 5648 5648 5648 5648 5648 5648 5648 5649 5649 5648
5625 5626 5626 5627 5627 5628 5629 5630 5630 5631 5632 5633 5633 5634 5634 5634 5634 5634 5634 5634 5634 5634 5634 5634 5634 5634 5635 5635 5635 5636 5637 5637 5637 5637 5637 5637 5637 5637 5637 5638 5638 5638 5639 5638
5616 5617 5617 5618 5618 5619 5619 5620 5621 5622 5622 5623 5624 5624 5624 5624 5624 5624 5624 5624 5624 5624 5624 5624 5624 5624 5624 5625 5625 5626 5626 5627 5627 5627 5627 5627 5627 5627 5627 5627 5628 5628 5629 5629
5608 5608 5608 5609 5609 5609 5610 5611 5611 5612 5613 5613 5614 5614 5614 5614 5614 5614 5614 5614 5614 5614 5614 5614 5614 5614 5614 5615 5615 5616 5616 5616 5616 5617 5616 5616 5617 5617 5617 5617 5617 5618 5619 5619
5599 5599 5600 5600 5600 5601 5601 5602 5602 5603 5604 5604 5604 5604 5604 5604 5604 5604 5604 5604 5604 5603 5603 5603 5604 5604 5604 5604 5605 5606 5606 5606 5606 5606 5606 5606 5606 5607 5607 5607 5608 5608 5609 5609
5591 5591 5591 5591 5592 5592 5593 5593 5594 5594 5595 5595 5595 5595 5595 5594 5594 5594 5594 5594 5594 5593 5593 5593 5594 5594 5594 5594 5594 5595 5596 5596 5596 5596 5596 5596 5596 5597 5597 5598 5598 5598 5599 5599
5583 5583 5583 5583 5583 5584 5584 5584 5585 5585 5585 5585 5585 5585 5584 5584 5584 5584 5584 5584 5583 5583 5583 5583 5583 5583 5584 5584 5584 5585 5585 5585 5585 5586 5586 5586 5587 5587 5587 5588 5588 5589 5589 5590
5575 5575 5575 5575 5575 5575 5575 5575 5575 5575 5575 5575 5575 5575 5575 5575 5575 5574 5574 5574 5573 5573 5573 5573 5573 5573 5574 5574 5574 5575 5575 5575 5575 5575 5576 5576 5577 5577 5578 5578 5579 5580 5580 5581
5567 5567 5566 5566 5566 5566 5566 5565 5565 5565 5565 5565 5565 5565 5565 5565 5565 5565 5564 5564 5564 5564 5564 5564 5564 5564 5564 5564 5565 5565 5565 5565 5566 5566 5567 5567 5568 5568 5569 5569 5570 5571 5571 5572
5558 5558 5558 5557 5557 5557 5556 5556 5556 5556 5556 5556 5556 5556 5556 5556 5556 5555 5555 5555 5555 5555 5555 5555 5555 5555 5556 5556 5556 5556 5556 5556 5556 5557 5557 5558 5558 5559 5560 5561 5561 5562 5562 5562
5550 5549 5549 5549 5548 5548 5547 5547 5547 5547 5547 5547 5547 5547 5547 5547 5547 5547 5547 5547 5547 5547 5547 5547 5547 5547 5547 5547 5547 5547 5547 5547 5548 5548 5548 5549 5550 5551 5552 5552 5553 5553 5553 5553
Wind_Speed
24 23 23 23 22 22 22 22 22 20 21 22 23 23 22 22 23 23 23 22 22 21 21 22 22 22 22 22 22 22 22 23 22 22 22 22 22 22 22 21 21 21 21 21
25 24 24 25 24 24 23 22 23 23 23 22 23 24 24 23 23 23 23 23 23 23 23 22 22 23 23 23 23 23 24 24 24 23 23 23 23 23 23 23 23 23 23 22
25 25 26 26 24 24 25 24 25 25 24 24 23 24 24 25 24 24 24 24 24 24 24 23 23 24 23 23 24 25 25 26 26 25 25 25 25 25 25 25 25 24 24 23
26 27 28 26 24 25 26 25 25 26 26 26 25 26 26 26 25 25 25 25 25 25 24 24 24 25 25 25 25 26 26 26 26 26 27 26 26 26 25 25 25 25 25 24
28 28 28 26 26 26 27 27 26 27 27 26 26 27 26 27 26 26 26 26 26 26 26 26 26 26 26 27 27 27 28 28 28 27 27 27 27 28 27 26 26 26 26 25
27 28 28 27 26 26 27 28 28 28 27 27 27 28 27 26 27 27 27 27 27 27 27 27 28 27 27 28 28 29 29 29 28 28 28 28 29 30 29 28 27 27 27 26
27 28 29 28 27 27 28 29 29 28 28 28 28 28 27 27 27 28 29 28 28 28 28 28 28 29 28 28 29 29 30 30 30 30 29 30 30 30 30 29 28 29 29 28
30 30 30 29 28 29 30 30 29 29 29 29 29 29 29 29 29 29 29 29 29 29 29 29 29 29 29 29 29 30 31 31 31 32 32 31 31 31 31 30 30 30 30 29
32 32 32 31 31 31 31 30 30 30 30 30 30 30 30 30 30 30 30 30 30 30 30 30 30 30 30 30 30 31 31 31 32 32 32 32 32 32 32 31 31 31 30 30
34 34 34 34 33 33 32 31 31 31 31 31 32 32 32 31 32 31 31 31 31 31 31 31 31 31 31 31 31 31 31 32 32 31 31 32 31 31 31 31 31 31 31 31
34 34 35 35 35 35 34 34 34 34 33 33 33 33 33 33 33 33 33 33 33 33 33 32 32 32 31 31 31 31 31 31 31 31 31 31 31 31 31 30 31 32 32 32
36 35 36 36 36 36 35 35 35 35 34 34 33 33 34 34 34 34 34 34 34 34 34 33 32 32 32 32 32 33 33 32 32 31 31 30 30 31 31 31 32 33 33 32
34 35 35 36 36 36 36 36 35 35 35 34 33 33 34 34 34 35 35 35 35 35 35 34 33 33 33 33 33 33 34 33 32 32 31 31 31 31 32 32 33 33 33 33
35 35 36 36 36 36 35 35 35 36 35 35 34 34 34 34 35 35 36 36 35 35 35 35 34 34 34 34 34 34 33 33 33 33 33 33 33 32 32 32 32 32 32 32
36 35 36 36 36 35 35 35 34 34 34 34 34 34 34 35 35 35 36 36 36 36 36 35 35 34 34 34 34 34 33 33 33 33 34 34 34 33 33 32 32 32 32 32
35 35 35 35 35 35 34 34 34 33 33 33 33 33 33 34 34 35 35 35 35 35 35 35 34 33 33 34 34 34 33 33 33 34 33 33 33 33 33 33 32 32 33 33
35 34 34 34 34 33 33 33 32 32 32 32 32 32 32 32 33 33 33 33 34 34 34 34 33 33 33 33 33 34 34 34 34 34 34 34 34 34 34 34 33 33 32 32
32 32 32 32 31 31 32 32 31 32 32 31 32 32 32 32 31 31 32 33 33 33 33 33 33 33 33 33 33 34 34 33 33 34 34 33 33 33 34 34 34 33 32 32
30 31 31 31 31 31 32 31 31 31 31 31 31 31 31 32 32 31 31 31 31 31 31 32 32 33 33 33 34 34 34 34 34 34 33 33 33 33 33 34 33 33 33 32
29 29 30 31 31 31 31 31 31 31 31 31 31 31 31 31 32 32 31 30 31 31 31 31 32 32 32 33 33 33 33 33 33 33 33 33 33 33 32 32 32 31 32 31
28 28 29 29 29 29 30 30 30 30 30 31 32 31 31 31 31 31 31 30 30 31 31 31 32 32 32 33 33 34 33 33 33 33 33 33 32 32 31 31 31 31 31 31
27 27 27 27 28 28 29 30 30 30 30 31 31 31 31 30 30 31 30 30 30 31 31 31 31 32 32 33 33 33 33 33 33 33 32 32 32 31 30 30 30 30 30 30
26 26 26 26 27 28 29 30 30 31 31 30 30 30 30 30 30 30 30 30 30 30 31 31 31 31 31 31 32 32 31 31 31 31 31 31 31 30 30 30 29 29 29 30
26 26 27 27 28 28 29 30 30 30 30 30 30 30 30 30 30 30 30 30 30 29 29 29 29 30 30 30 30 30 30 30 30 30 30 30 30 30 30 29 29 28 28 29
27 27 28 28 28 29 29 28 28 29 29 29 29 29 29 29 29 29 28 28 28 28 28 28 29 29 28 28 28 28 28 29 29 29 29 29 29 29 29 28 28 28 28 29
28 28 28 29 29 29 29 28 28 28 28 28 28 28 29 28 28 28 27 28 28 27 27 27 27 27 27 27 26 27 27 28 29 29 28 27 27 27 27 27 28 28 29 29
28 28 28 28 28 28 28 28 28 27 27 28 28 28 28 28 28 27 27 27 26 26 26 26 26 26 26 26 26 27 27 27 26 26 25 25 25 25 26 27 28 28 28 28
Wind_Direction
252 256 258 260 260 259 258 258 258 258 259 265 269 270 270 267 266 268 268 269 268 267 268 270 268 265 265 267 268 270 272 273 274 277 279 280 281 280 281 282 283 286 288 289
255 258 259 258 259 260 259 258 258 261 262 263 268 269 270 270 268 266 264 264 266 266 266 268 268 267 267 269 271 270 271 273 275 277 279 279 280 279 280 281 282 284 285 287
260 260 260 259 259 259 258 258 259 261 264 265 266 268 270 271 270 267 264 263 264 266 266 267 267 266 268 270 272 271 272 274 275 277 278 279 279 279 279 280 281 282 284 285
261 261 261 262 262 263 261 260 261 262 263 265 268 269 271 270 270 268 264 263 264 266 267 267 268 267 267 268 269 271 272 273 275 276 276 277 278 280 279 280 281 281 284 284
261 261 262 262 263 265 264 261 262 262 264 266 267 269 270 269 269 268 266 265 265 265 265 267 268 268 269 269 269 269 270 271 274 276 276 277 278 280 280 281 281 282 285 284
261 262 263 263 265 267 265 263 262 263 262 264 266 268 269 269 269 270 269 268 266 265 266 267 268 269 270 270 270 270 271 271 272 274 275 275 276 278 278 279 280 281 284 285
261 263 263 263 265 266 265 264 264 264 264 264 266 268 268 268 268 268 269 269 268 266 266 267 267 269 269 270 271 272 272 272 272 273 274 274 274 276 276 277 278 280 281 283
263 263 264 264 265 265 265 264 264 266 267 266 267 268 268 268 268 268 268 268 268 267 268 268 268 268 268 269 270 271 271 271 272 273 273 273 273 274 274 274 275 278 280 281
263 263 263 263 263 265 267 266 265 264 266 266 266 267 267 267 265 265 265 266 268 269 270 271 270 270 270 271 271 271 271 271 272 273 272 272 274 273 273 273 274 276 278 280
262 263 264 263 263 264 266 266 266 265 265 265 266 266 266 265 265 265 265 266 268 270 271 272 272 271 271 272 272 271 271 272 272 271 271 272 273 272 271 272 272 274 277 279
262 264 263 263 264 264 264 264 264 267 267 267 267 267 266 266 266 265 266 267 268 270 271 272 272 270 270 270 272 272 272 272 272 272 273 274 275 273 272 272 274 275 277 279
264 265 265 264 264 264 264 264 264 265 266 266 266 266 265 265 266 267 269 269 270 270 270 271 271 270 269 269 270 271 271 271 271 272 272 273 275 274 274 275 275 275 277 278
265 266 265 265 265 264 263 264 265 265 266 267 266 266 266 265 266 268 269 270 270 271 271 270 271 270 269 269 269 271 271 270 270 271 272 273 274 275 275 276 277 276 277 278
264 264 264 265 266 264 264 263 264 264 265 266 266 266 267 266 267 268 268 268 270 270 271 271 271 271 270 269 270 270 269 269 269 270 271 272 274 274 275 275 275 276 278 280
265 265 265 265 265 265 264 263 263 264 265 266 266 266 267 268 268 268 268 268 269 270 271 271 271 271 269 268 269 268 267 268 269 270 270 272 274 275 274 274 275 276 277 279
266 266 266 266 265 265 265 265 264 263 264 266 266 267 267 268 269 269 269 269 270 271 271 270 270 269 268 267 267 266 266 268 270 271 271 272 273 273 273 273 274 275 276 277
266 266 266 266 265 265 265 265 264 263 263 266 267 268 269 270 270 269 269 270 270 270 270 269 268 268 268 267 266 266 267 269 271 272 272 273 273 273 273 272 272 274 276 276
265 266 266 265 265 265 265 265 265 264 265 267 268 269 270 271 272 271 271 270 270 270 269 269 268 268 268 268 267 267 268 271 273 273 273 273 274 274 274 273 272 273 274 276
266 266 266 265 266 266 265 264 264 264 265 267 268 269 270 271 271 271 271 269 269 269 269 269 269 269 269 269 268 267 268 269 272 273 274 274 274 275 275 274 273 273 274 275
268 268 267 266 266 266 265 264 263 263 265 267 268 269 270 271 271 270 271 270 269 269 269 269 268 269 269 268 268 268 269 270 272 274 274 274 275 276 275 274 273 273 273 273
270 269 269 268 266 266 266 265 266 266 267 268 268 269 271 271 270 270 270 270 270 269 269 270 270 270 269 269 269 269 269 271 273 274 274 274 275 276 275 274 273 272 271 272
271 269 268 267 266 266 266 267 267 269 269 269 269 270 270 270 270 270 270 270 269 269 270 271 271 272 272 271 269 269 269 270 272 273 273 273 274 274 274 272 272 271 271 273
271 270 268 266 266 266 266 267 268 269 269 268 269 270 270 271 271 271 271 271 271 271 271 271 271 272 272 271 269 268 269 270 271 272 272 272 272 272 272 271 270 271 272 273
268 268 269 269 269 268 269 269 269 269 269 268 269 270 270 271 272 273 273 272 272 272 271 271 271 271 271 271 270 270 270 270 270 270 271 270 270 271 271 270 269 270 273 274
269 269 270 270 271 271 271 271 270 270 270 269 269 269 269 271 273 274 274 272 271 271 271 271 272 271 272 271 270 269 269 270 270 270 271 271 270 270 269 268 269 271 273 274
272 272 273 272 272 271 271 271 271 271 270 270 269 269 269 269 271 272 272 271 271 271 271 270 270 269 270 271 271 270 270 271 272 271 270 270 269 268 267 268 270 274 275 275
275 274 273 273 272 271 270 269 269 269 269 270 269 269 269 269 269 270 270 270 269 269 269 270 270 269 268 269 271 272 272 271 270 268 267 268 269 269 269 270 271 272 273 274